| time (UTC) | temp C | wind direction | speed KPH | gust KPH | rain 1hr cm | rain 24hr cm | rain mn cm | humidity % | barometer mb |
| 20260506184629 | 14 | 360 | 1.6 | 6.4 | 0.00 | 0.81 | 0.41 | 77 | 1010.5 |
| 20260506183014 | 14 | 360 | 0.0 | 0.0 | 0.00 | 0.81 | 0.41 | 75 | 1010.4 |
| 20260506181605 | 14 | 360 | 3.2 | 6.4 | 0.00 | 0.81 | 0.41 | 75 | 1010.3 |
| 20260506180112 | 14 | 360 | 0.0 | 1.6 | 0.00 | 0.81 | 0.41 | 73 | 1010.0 |
| 20260506174614 | 14 | 360 | 0.0 | 3.2 | 0.00 | 0.97 | 0.41 | 72 | 1009.9 |
| 20260506173135 | 15 | 360 | 1.6 | 3.2 | 0.00 | 0.97 | 0.41 | 66 | 1009.7 |
| 20260506171619 | 15 | 360 | 1.6 | 3.2 | 0.00 | 0.97 | 0.41 | 67 | 1009.4 |
| 20260506170119 | 15 | 360 | 0.0 | 4.8 | 0.00 | 0.97 | 0.41 | 71 | 1009.5 |
| 20260506164502 | 15 | 360 | 3.2 | 6.4 | 0.00 | 0.99 | 0.41 | 72 | 1009.6 |
| 20260506163130 | 15 | 360 | 3.2 | 8.0 | 0.00 | 0.99 | 0.41 | 73 | 1009.6 |
| 20260506161630 | 15 | 360 | 3.2 | 4.8 | 0.00 | 0.99 | 0.41 | 68 | 1009.8 |
| 20260506160133 | 15 | 360 | 3.2 | 6.4 | 0.00 | 0.99 | 0.41 | 66 | 1009.7 |
| 20260506154516 | 15 | 360 | 0.0 | 4.8 | 0.00 | 1.04 | 0.41 | 64 | 1009.9 |
| 20260506153011 | 14 | 360 | 1.6 | 4.8 | 0.00 | 1.04 | 0.41 | 66 | 1010.2 |
| 20260506151511 | 14 | 360 | 1.6 | 4.8 | 0.00 | 1.04 | 0.41 | 65 | 1010.2 |
| 20260506150056 | 14 | 360 | 4.8 | 8.0 | 0.00 | 1.04 | 0.41 | 68 | 1010.3 |
| 20260506144605 | 13 | 360 | 4.8 | 12.9 | 0.00 | 1.04 | 0.41 | 68 | 1010.4 |
| 20260506143118 | 14 | 360 | 4.8 | 8.0 | 0.00 | 1.04 | 0.41 | 67 | 1010.5 |
| 20260506141607 | 13 | 360 | 4.8 | 9.7 | 0.00 | 1.04 | 0.41 | 66 | 1010.6 |
| 20260506140047 | 13 | 360 | 6.4 | 9.7 | 0.00 | 1.04 | 0.41 | 68 | 1010.7 |
| 20260506134520 | 13 | 360 | 4.8 | 8.0 | 0.00 | 1.09 | 0.41 | 70 | 1010.8 |
| 20260506133019 | 13 | 360 | 4.8 | 8.0 | 0.00 | 1.09 | 0.41 | 71 | 1011.1 |
| 20260506131519 | 13 | 360 | 3.2 | 6.4 | 0.00 | 1.09 | 0.41 | 72 | 1011.3 |
| 20260506130052 | 12 | 360 | 6.4 | 9.7 | 0.00 | 1.09 | 0.41 | 78 | 1011.3 |
| 20260506124528 | 12 | 360 | 9.7 | 14.5 | 0.00 | 2.69 | 0.41 | 78 | 1011.4 |
| 20260506123027 | 12 | 360 | 11.3 | 14.5 | 0.00 | 2.69 | 0.41 | 78 | 1011.3 |
| 20260506121553 | 12 | 360 | 9.7 | 12.9 | 0.00 | 2.69 | 0.41 | 80 | 1011.3 |
| 20260506114533 | 12 | 360 | 3.2 | 11.3 | 0.03 | 3.33 | 0.41 | 77 | 1011.4 |
| 20260506113054 | 11 | 360 | 3.2 | 9.7 | 0.13 | 3.33 | 0.41 | 75 | 1011.4 |
| 20260506111555 | 11 | 360 | 9.7 | 20.9 | 0.18 | 3.33 | 0.41 | 74 | 1011.6 |
| 20260506110032 | 11 | 360 | 12.9 | 30.6 | 0.30 | 3.33 | 0.41 | 74 | 1011.7 |
| 20260506104600 | 11 | 360 | 12.9 | 29.0 | 0.30 | 3.30 | 0.38 | 73 | 1011.7 |
| 20260506103052 | 11 | 360 | 16.1 | 33.8 | 0.20 | 3.20 | 0.28 | 75 | 1011.4 |
| 20260506101506 | 11 | 360 | 16.1 | 27.4 | 0.15 | 3.15 | 0.23 | 80 | 1011.1 |
| 20260506100013 | 11 | 360 | 14.5 | 20.9 | 0.03 | 3.02 | 0.10 | 81 | 1011.0 |
| 20260506094516 | 11 | 360 | 6.4 | 27.4 | 0.00 | 3.05 | 0.08 | 83 | 1010.7 |
| 20260506093009 | 11 | 360 | 11.3 | 25.7 | 0.05 | 3.05 | 0.08 | 83 | 1010.5 |
| 20260506091638 | 11 | 360 | 19.3 | 30.6 | 0.05 | 3.05 | 0.08 | 86 | 1010.3 |
| 20260506090130 | 11 | 360 | 20.9 | 38.6 | 0.05 | 3.05 | 0.08 | 88 | 1010.3 |
| 20260506084628 | 11 | 360 | 29.0 | 45.1 | 0.05 | 3.05 | 0.08 | 93 | 1009.9 |
| 20260506083004 | 11 | 360 | 1.6 | 6.4 | 0.00 | 3.00 | 0.05 | 94 | 1009.5 |
| 20260506081516 | 11 | 360 | 0.0 | 4.8 | 0.00 | 3.00 | 0.05 | 94 | 1009.4 |
| 20260506073002 | 10 | 360 | 1.6 | 4.8 | 0.03 | 3.00 | 0.05 | 94 | 1008.8 |
| 20260506071500 | 11 | 360 | 4.8 | 9.7 | 0.03 | 3.00 | 0.05 | 94 | 1008.6 |
| 20260506061601 | 11 | 360 | 3.2 | 8.0 | 0.03 | 2.97 | 0.03 | 94 | 1008.2 |
| 20260506060106 | 11 | 360 | 3.2 | 6.4 | 0.00 | 2.97 | 0.00 | 94 | 1008.0 |
| 20260506050135 | 11 | 360 | 4.8 | 9.7 | 0.00 | 2.97 | 0.00 | 93 | 1007.7 |
| 20260506044631 | 11 | 360 | 1.6 | 4.8 | 0.00 | 2.97 | 0.00 | 93 | 1007.6 |
| 20260506043122 | 11 | 360 | 1.6 | 4.8 | 0.00 | 2.97 | 0.00 | 92 | 1007.6 |
| 20260506041502 | 11 | 360 | 0.0 | 4.8 | 0.00 | 2.97 | 0.00 | 92 | 1007.5 |
| 20260506040033 | 11 | 360 | 1.6 | 8.0 | 0.00 | 2.97 | 0.00 | 93 | 1007.6 |
| 20260506034513 | 11 | 360 | 6.4 | 8.0 | 0.00 | 3.02 | 0.00 | 93 | 1007.5 |
| 20260506033020 | 11 | 360 | 1.6 | 6.4 | 0.00 | 3.02 | 0.00 | 93 | 1007.6 |
| 20260506030130 | 10 | 360 | 4.8 | 8.0 | 0.00 | 3.02 | 0.00 | 93 | 1007.7 |
| 20260506024503 | 11 | 360 | 6.4 | 12.9 | 0.00 | 3.02 | 0.00 | 92 | 1007.7 |
| 20260506023042 | 11 | 360 | 4.8 | 9.7 | 0.00 | 3.02 | 0.00 | 92 | 1007.8 |
| 20260506021601 | 11 | 360 | 3.2 | 6.4 | 0.00 | 3.02 | 0.00 | 93 | 1007.9 |
| 20260506020112 | 11 | 360 | 1.6 | 6.4 | 0.00 | 3.02 | 0.00 | 92 | 1008.0 |
| 20260506014627 | 11 | 360 | 3.2 | 6.4 | 0.00 | 3.05 | 0.00 | 92 | 1008.2 |
| 20260506013124 | 11 | 360 | 3.2 | 6.4 | 0.00 | 3.05 | 0.00 | 92 | 1008.3 |
| 20260506011624 | 11 | 360 | 3.2 | 8.0 | 0.00 | 3.05 | 0.00 | 92 | 1008.6 |
| 20260506010011 | 11 | 360 | 1.6 | 4.8 | 0.00 | 3.05 | 0.00 | 91 | 1008.7 |
| 20260506004520 | 12 | 360 | 1.6 | 3.2 | 0.00 | 3.05 | 0.00 | 91 | 1008.9 |
| 20260506003009 | 12 | 360 | 1.6 | 4.8 | 0.00 | 3.05 | 0.00 | 91 | 1009.1 |
| 20260506001624 | 12 | 360 | 0.0 | 3.2 | 0.00 | 3.05 | 0.00 | 91 | 1009.3 |
| 20260506000114 | 12 | 360 | 1.6 | 3.2 | 0.00 | 3.05 | 0.00 | 91 | 1009.6 |
| 20260505234608 | 12 | 360 | 1.6 | 6.4 | 0.00 | 3.05 | 0.00 | 90 | 1009.8 |
| 20260505233113 | 12 | 360 | 4.8 | 6.4 | 0.00 | 3.05 | 0.00 | 90 | 1010.0 |
| 20260505231606 | 12 | 360 | 1.6 | 8.0 | 0.00 | 3.05 | 0.00 | 88 | 1010.4 |
| 20260505230055 | 13 | 360 | 1.6 | 6.4 | 0.00 | 3.05 | 0.00 | 87 | 1010.5 |
| 20260505224551 | 13 | 360 | 3.2 | 9.7 | 0.05 | 3.05 | 0.00 | 86 | 1010.5 |
| 20260505223110 | 13 | 360 | 1.6 | 9.7 | 0.05 | 3.05 | 0.00 | 85 | 1010.5 |
| 20260505221610 | 13 | 360 | 3.2 | 6.4 | 0.05 | 3.05 | 0.00 | 86 | 1010.8 |
| 20260505220103 | 13 | 360 | 4.8 | 16.1 | 0.05 | 3.05 | 0.00 | 84 | 1011.0 |
| 20260505214617 | 13 | 360 | 3.2 | 9.7 | 0.00 | 3.02 | 3.02 | 88 | 1011.2 |
| 20260505213124 | 13 | 360 | 3.2 | 6.4 | 0.00 | 3.02 | 3.02 | 87 | 1011.2 |
| 20260505211635 | 13 | 360 | 3.2 | 8.0 | 0.23 | 3.02 | 3.02 | 87 | 1011.0 |
| 20260505210010 | 13 | 360 | 3.2 | 9.7 | 0.28 | 3.02 | 3.02 | 85 | 1010.9 |
| 20260505204546 | 13 | 360 | 0.0 | 11.3 | 0.36 | 3.02 | 3.02 | 83 | 1011.1 |
| 20260505203101 | 14 | 360 | 8.0 | 14.5 | 0.36 | 3.00 | 3.00 | 82 | 1011.0 |
| 20260505201621 | 14 | 360 | 8.0 | 19.3 | 0.15 | 2.79 | 2.79 | 81 | 1010.8 |
| 20260505200009 | 14 | 360 | 12.9 | 24.1 | 0.10 | 2.74 | 2.74 | 80 | 1010.7 |
| 20260505194516 | 14 | 360 | 16.1 | 20.9 | 0.03 | 2.67 | 2.67 | 84 | 1010.4 |
| 20260505193027 | 13 | 360 | 9.7 | 17.7 | 0.00 | 2.64 | 2.64 | 89 | 1009.9 |
| 20260505191559 | 13 | 360 | 3.2 | 8.0 | 0.00 | 2.64 | 2.64 | 89 | 1009.8 |
| 20260505190107 | 13 | 360 | 3.2 | 6.4 | 0.00 | 2.64 | 2.64 | 89 | 1009.3 |